Theta_e
287 287 287 287 289 289 290 290 290 292 292 293 293 294 293 294 295 295 296 300 302 302 302 305 305 306 306 307 309 310 310 308 311 311 312 313 312 312 309 309 308 309 309
287 287 287 288 289 288 290 291 291 291 292 292 293 294 294 295 294 295 297 299 300 301 301 302 304 304 305 308 310 308 311 309 308 311 308 309 310 312 308 305 305 304 307
286 287 287 288 288 287 289 291 291 291 291 292 293 293 293 293 294 295 296 298 299 301 301 301 301 301 302 305 310 308 308 308 308 309 310 310 308 305 304 304 301 300 301
286 287 287 287 287 287 287 289 291 291 292 292 291 293 294 294 295 296 297 298 299 301 301 303 302 301 301 305 307 308 307 309 308 309 309 309 306 305 304 303 302 302 300
286 286 286 287 287 286 286 287 287 288 288 288 289 289 291 291 292 294 295 296 296 296 298 300 302 302 302 302 305 305 306 308 309 309 309 309 309 308 306 304 300 299 298
288 287 287 287 287 287 287 286 287 286 286 286 287 288 289 290 290 292 291 292 293 294 297 298 300 301 301 302 305 303 305 303 305 306 307 307 306 305 302 300 299 298 297
288 288 288 288 287 286 286 286 287 287 287 287 287 288 289 289 288 289 289 290 293 293 293 295 292 291 294 298 297 300 300 300 301 301 303 304 303 302 301 299 298 298 294
287 286 285 286 287 287 287 286 286 284 285 284 283 284 284 285 286 286 288 286 284 286 288 288 287 286 286 286 288 289 290 290 290 291 291 292 293 293 291 288 287 286 287
286 287 285 286 285 284 283 283 283 283 282 283 284 283 283 284 284 284 283 283 284 284 284 284 285 285 287 288 288 289 289 289 288 288 288 288 289 287 287 287 288 288 288
287 286 284 284 284 284 284 284 286 284 284 283 283 284 284 284 283 284 285 285 286 286 286 286 287 287 288 288 288 289 289 289 290 291 291 290 290 289 288 288 287 287 288
288 286 285 285 285 284 284 284 284 284 284 284 284 284 285 285 285 286 286 285 285 285 285 286 287 288 288 288 288 288 289 289 290 289 289 289 289 289 288 288 288 288 287
287 286 285 285 285 285 285 285 285 285 285 285 285 285 286 286 286 286 286 286 287 287 288 288 288 288 289 289 289 289 289 289 289 289 289 288 288 287 287 287 286 286 285
287 286 286 285 285 285 285 285 286 286 286 286 287 287 287 287 287 287 288 288 288 288 288 288 288 288 289 289 288 288 288 288 288 288 287 287 286 285 285 284 284 283 283
287 286 286 286 286 286 286 286 286 286 286 286 286 286 287 287 286 287 287 288 288 288 288 288 289 289 288 288 288 287 287 287 287 287 287 286 285 284 284 283 283 282 282
288 287 286 286 286 286 286 286 286 285 285 285 285 285 285 286 285 285 285 285 285 285 286 286 287 287 287 287 287 287 286 286 286 286 285 285 285 284 284 283 283 282 281
289 288 287 286 286 286 286 285 285 285 285 285 285 285 285 285 285 284 284 284 283 283 284 285 285 285 285 285 285 285 284 284 284 283 283 283 283 283 283 283 282 282 281
291 290 288 287 286 286 285 285 286 285 284 284 284 284 284 284 284 283 283 282 282 282 282 283 283 283 283 283 283 283 283 283 282 282 281 281 281 281 281 281 281 281 281
291 292 291 289 287 286 285 285 284 285 285 285 284 283 283 283 282 282 282 282 282 282 281 281 281 281 281 281 281 281 281 281 280 280 280 280 279 279 279 279 279 279 279
291 291 291 291 290 288 286 284 284 284 284 284 284 284 283 283 282 282 282 281 281 281 281 281 280 280 279 279 279 278 278 278 278 278 278 278 278 278 278 278 278 278 277
291 290 290 290 290 289 288 286 284 283 283 283 283 283 282 282 283 282 281 280 280 280 280 279 279 278 278 278 278 277 277 276 276 276 276 276 277 277 276 276 276 276 276
289 288 288 288 287 287 286 285 283 282 282 282 282 281 281 281 281 281 281 280 279 279 279 278 278 278 278 277 277 277 276 275 275 275 275 275 275 275 275 275 275 275 274
286 286 285 284 284 283 283 282 281 281 281 280 280 279 279 279 278 279 279 279 279 278 278 278 278 278 277 276 276 275 275 274 274 274 273 273 273 273 273 273 273 273 273
286 285 283 282 282 282 281 280 280 279 279 279 279 279 279 279 279 279 279 278 278 278 277 276 276 275 274 274 273 273 272 272 272 272 272 272 272 272 272 272 272 272 272
282 282 281 281 280 280 279 279 279 279 279 279 279 278 278 278 278 277 276 276 275 275 275 274 274 274 273 273 273 273 272 272 272 271 271 271 271 271 271 271 271 271 271
280 279 279 279 279 279 278 278 278 278 278 278 277 277 276 275 275 274 274 274 274 274 274 274 273 273 273 273 273 272 272 272 272 271 271 271 270 270 270 270 270 270 270
278 278 278 278 278 278 277 276 276 275 275 275 274 274 274 274 274 274 273 273 273 273 272 272 271 271 271 271 271 271 271 271 271 271 271 270 270 270 270 270 270 270 270
Wind_Speed
14 14 14 13 12 12 13 14 14 11 11 13 15 16 16 17 18 17 18 20 24 20 17 19 21 23 22 23 9 15 16 9 10 19 22 23 26 27 29 28 27 25 25
13 12 11 11 9 10 10 12 13 12 12 14 14 15 16 14 11 11 14 17 15 15 14 16 16 14 15 15 16 13 17 12 11 11 15 22 26 26 30 30 29 26 26
11 9 9 9 8 8 8 9 10 11 14 16 17 16 14 12 12 12 12 16 16 14 15 16 16 15 15 15 17 13 10 15 20 16 21 25 28 31 32 30 28 25 25
11 9 8 8 8 7 8 8 8 9 10 11 11 10 10 9 9 10 9 11 13 15 16 16 13 14 12 11 13 13 16 19 18 23 22 21 24 24 25 26 25 24 21
10 10 11 11 10 9 9 8 8 8 9 9 9 8 7 5 5 5 6 11 12 13 13 12 12 11 10 11 15 17 20 23 21 19 21 21 22 25 25 25 23 19 16
11 11 13 14 14 13 13 12 11 11 10 10 9 9 8 8 7 5 3 3 7 7 9 9 5 12 13 14 14 16 14 12 11 15 16 16 18 19 18 17 16 16 14
11 12 14 14 14 14 14 14 14 15 15 15 15 15 15 14 12 14 14 13 13 15 14 15 14 13 12 12 9 7 8 11 12 9 7 10 11 11 13 15 15 15 12
9 10 13 14 14 14 14 13 13 12 14 15 14 16 16 17 19 17 16 15 14 16 16 14 12 12 14 13 12 11 10 9 9 9 11 11 13 12 12 11 12 12 11
4 6 7 8 9 9 9 8 8 9 10 8 9 10 11 12 12 12 11 11 10 11 11 11 10 10 10 9 8 7 7 7 7 7 8 7 9 8 8 9 9 11 11
2 1 2 3 3 4 4 4 5 6 6 7 8 8 8 8 8 8 8 8 7 8 8 7 7 6 6 6 6 7 6 6 6 5 4 3 4 7 9 10 11 12 12
6 5 4 3 3 3 4 5 4 3 3 4 5 5 6 6 6 5 4 5 4 5 4 3 3 3 2 2 3 3 3 3 3 3 4 5 7 9 11 12 13 14 15
11 10 9 7 6 5 4 4 5 6 6 5 6 6 5 5 5 5 4 4 3 3 3 3 3 3 3 3 3 3 4 4 5 5 7 9 9 11 13 15 16 15 16
15 14 13 12 10 9 8 8 7 6 6 6 6 5 6 6 6 6 7 7 7 7 7 7 7 7 8 8 9 10 11 11 12 13 13 13 15 17 18 19 19 20 21
19 17 17 16 15 14 13 12 11 10 10 10 9 9 9 8 9 11 11 11 12 13 14 14 14 14 14 15 15 16 17 18 20 20 20 20 21 23 25 26 27 27 28
25 22 21 21 19 18 18 16 16 13 15 14 12 13 14 12 11 13 14 15 16 17 19 19 19 20 20 20 21 21 22 24 26 26 27 28 28 30 31 31 33 35 37
31 29 25 23 22 22 21 21 20 18 17 18 17 18 17 18 17 17 18 19 20 21 25 25 25 24 25 25 26 26 26 28 29 29 31 33 34 36 36 37 37 39 41
35 33 29 27 26 25 24 24 24 20 22 22 21 21 22 22 22 21 22 23 23 24 27 28 29 29 30 30 30 31 33 32 32 34 35 36 37 38 39 40 40 41 43
35 35 34 32 29 27 27 26 26 27 26 24 23 24 24 25 25 25 25 27 29 28 29 32 34 35 35 35 36 37 38 38 38 38 38 38 39 40 41 42 41 43 44
31 33 33 33 32 30 29 29 29 29 30 30 29 27 25 27 29 29 28 29 30 32 32 32 33 34 35 36 38 39 40 40 40 41 41 41 40 39 40 39 39 39 40
26 28 29 30 32 32 31 31 30 30 31 31 32 29 28 30 31 31 30 29 29 30 31 32 33 33 34 35 36 36 37 37 35 35 36 36 37 39 40 39 39 38 37
19 20 23 25 27 27 27 28 27 28 29 29 30 28 28 28 28 28 28 28 28 28 28 28 28 28 28 28 28 29 30 30 30 30 31 31 32 33 34 36 37 37 37
14 15 16 17 18 18 19 20 21 22 22 23 22 22 21 21 22 22 22 22 23 23 23 24 25 25 25 25 25 25 25 26 26 26 26 26 26 26 26 26 29 32 32
10 9 8 8 9 10 10 11 12 13 14 15 16 16 17 17 18 18 19 19 19 19 20 20 21 22 21 21 21 22 24 25 25 24 26 26 27 27 27 28 28 29 30
5 4 4 4 4 5 5 6 7 8 9 10 12 13 13 14 15 16 17 18 18 19 19 19 20 20 21 21 22 23 24 25 26 29 30 28 26 27 30 29 28 28 27
8 8 7 7 6 6 6 7 7 7 8 9 11 12 12 13 13 14 15 16 16 17 16 17 17 18 18 18 18 18 19 19 20 20 21 22 24 23 23 24 25 27 27
13 13 13 12 11 10 9 8 8 8 9 10 11 12 14 15 15 16 16 17 18 18 19 19 19 20 20 21 21 20 20 20 20 19 18 20 22 23 23 22 20 21 20
Wind_Direction
333 329 327 323 323 327 325 320 309 297 286 290 292 287 290 282 272 265 255 252 244 239 230 238 241 237 241 255 234 253 259 288 268 215 200 197 207 218 220 224 223 226 231
341 334 331 328 335 330 326 316 307 305 303 303 301 300 298 285 286 251 229 233 220 220 224 235 244 232 220 224 221 220 233 251 275 239 203 200 206 210 217 219 221 227 233
353 349 348 340 339 332 323 309 315 324 325 316 311 303 296 291 280 259 234 221 223 223 230 240 242 243 234 217 219 225 263 231 247 254 261 230 215 208 214 217 222 225 229
12 15 14 6 359 345 344 335 330 325 314 304 302 300 302 288 281 262 232 228 226 229 230 231 245 241 256 241 234 222 243 247 238 227 241 229 222 220 222 223 228 231 234
28 35 39 42 35 27 21 10 9 5 350 344 345 343 329 320 292 278 238 228 233 219 212 221 220 211 217 221 220 221 225 231 228 230 225 226 226 225 223 226 224 225 229
50 51 54 53 48 45 48 46 39 34 33 37 37 34 33 45 49 51 63 190 200 171 175 181 227 224 196 190 198 195 193 206 206 215 215 221 228 226 219 218 212 201 198
67 66 65 63 59 56 58 58 58 54 53 60 63 71 69 70 77 95 96 104 116 100 100 110 108 102 103 113 132 139 164 164 163 170 178 182 191 187 183 185 188 193 196
75 72 70 69 69 66 65 62 69 71 64 63 61 61 61 64 60 59 63 74 81 88 90 97 110 115 116 118 121 128 142 135 141 143 141 157 151 159 164 173 190 197 208
86 72 65 70 72 68 61 57 53 42 42 46 54 65 75 76 76 73 69 69 72 79 88 93 92 92 91 101 105 107 120 127 143 140 135 136 130 156 179 192 211 222 226
200 118 50 18 11 17 42 58 57 37 37 40 35 34 40 53 71 80 86 90 88 90 94 94 101 102 104 109 118 127 137 145 156 156 146 179 186 199 212 219 221 227 241
244 262 271 283 307 329 342 348 352 4 15 19 26 27 32 35 34 35 44 60 81 90 98 98 99 109 116 132 146 155 166 170 179 186 200 204 212 216 224 230 238 237 243
250 256 261 262 267 272 286 307 319 327 336 350 356 356 2 5 8 11 16 20 18 5 355 351 346 334 324 307 294 288 283 272 255 251 244 239 240 242 242 241 245 250 255
249 249 253 258 261 265 269 275 275 280 293 304 308 310 314 326 331 331 328 327 324 320 313 305 299 297 295 293 290 286 283 279 277 275 273 272 270 268 270 272 271 268 267
253 251 251 253 255 258 262 264 267 274 279 284 292 299 302 311 314 311 313 312 311 308 303 301 300 298 294 292 290 291 292 291 289 288 287 282 277 275 275 274 274 273 272
257 254 254 257 258 260 263 265 269 271 276 279 283 287 291 290 292 295 297 296 296 295 292 291 290 290 289 289 290 290 289 287 287 288 284 282 278 275 273 273 273 273 272
255 257 257 260 262 263 265 266 269 271 270 275 280 284 284 288 289 289 290 291 292 292 289 289 289 290 291 292 291 289 285 284 284 283 280 278 277 276 275 273 272 270 271
254 256 259 260 261 263 265 269 271 266 274 275 276 279 283 288 291 292 293 294 291 290 287 289 289 291 292 290 288 287 285 285 283 280 280 280 279 278 277 276 275 274 273
253 254 256 259 262 265 267 270 272 274 274 269 273 279 282 285 287 287 287 286 286 285 286 288 289 291 290 289 289 289 288 287 286 286 284 283 282 282 282 281 280 279 279
254 255 256 260 262 266 268 269 271 273 275 277 278 277 280 279 280 282 282 283 284 283 283 282 282 283 285 288 289 289 290 289 290 290 289 289 288 287 285 283 282 281 282
256 258 258 258 261 262 265 268 271 273 275 277 279 283 281 278 278 280 283 283 280 279 280 281 281 281 282 283 284 285 287 289 290 292 293 294 295 295 293 292 292 290 289
261 258 256 257 259 264 265 267 271 272 274 276 279 283 284 285 284 284 284 287 289 290 290 290 289 288 287 286 285 285 285 286 286 286 285 281 280 282 284 286 286 286 288
277 274 268 266 267 269 269 271 274 277 278 280 282 285 288 290 291 293 294 294 293 293 293 292 291 291 292 294 295 295 297 298 299 300 300 299 297 293 289 286 285 285 285
278 271 275 281 283 281 280 282 282 285 288 291 294 296 297 299 301 302 302 302 302 301 302 302 302 303 303 302 301 299 299 299 300 300 298 297 295 294 295 293 289 285 283
343 329 322 313 310 313 314 311 310 310 310 312 315 316 316 316 315 312 308 305 306 309 309 308 307 307 306 302 298 295 292 290 286 282 280 277 277 277 284 286 286 286 287
52 58 62 60 53 43 27 17 8 359 345 335 327 321 318 318 318 320 323 324 324 323 321 317 316 314 312 310 309 307 306 306 303 301 296 291 288 289 288 282 279 281 284
57 58 58 54 51 44 34 23 13 7 360 353 348 344 341 339 335 332 327 323 319 316 315 313 312 310 308 305 304 301 301 303 303 304 304 298 293 288 284 285 287 287 287